Weather History for East Milton, MA

Change the Weather History Date:

Thursday, January 2, 2014

  Actual Average (KBOS) Record (KBOS)
Temperature  
Mean Temperature 12 °F 30 °F  
Max Temperature 23 °F 37 °F 66 °F (1890)
Min Temperature 1 °F 23 °F -3 °F (1899)
Degree Days  
Heating Degree Days 53 35  
Month to date heating degree days 70  
Since 1 July heating degree days 2064  
Cooling Degree Days 0 0  
Month to date cooling degree days 0  
Year to date cooling degree days 0  
Moisture  
Dew Point 12 °F    
Average Humidity 90    
Maximum Humidity 96    
Minimum Humidity 77    
Precipitation  
Precipitation 1.01 in 0.11 in 2.24 in (1987)
Month to date precipitation 0.22  
Year to date precipitation 0.22  
Sea Level Pressure  
Sea Level Pressure 30.11 in    
Wind  
Wind Speed 12 mph (NNE)    
Max Wind Speed 23 mph    
Max Gust Speed 39 mph    
T = Trace of Precipitation, MM = Missing Value Source: NWS Daily Summary

Daily Weather History Graph

Daily Weather History Graph

Search for Another Location

Airport:

Trip Planner

Search our weather history database for the weather conditions in past years. The results will help you decide how hot, cold, wet, or windy it might be!

Date:

Astronomy

Jan. 02, 2014 Rise Set
Actual Time 7:13 AM EST 4:23 PM EST
Civil Twilight 6:41 AM EST 4:55 PM EST
Nautical Twilight 6:06 AM EST 5:30 PM EST
Astronomical Twilight 5:32 AM EST 6:04 PM EST
Moon 7:50 AM EST (1/2) 6:19 PM EST (1/2)
Length of Visible Light 10h 14m
Length of Day
9h 10m
New Moon, 2% of the Moon is Illuminated
Jan 2
New Moon
Jan 7
First Quarter
Jan 15
Full
Jan 24
Last Quarter
Jan 30
New

Hourly Weather History & Observations

Time (EST) Temp. Windchill Dew Point Humidity Pressure Visibility Wind Dir Wind Speed Gust Speed Precip Events Conditions
12:54 AM 19.0 °F 10.0 °F 12.9 °F 77% 30.35 in - NNE 6.9 mph - N/A   Unknown
1:54 AM 18.0 °F 7.7 °F 14.0 °F 84% 30.35 in - NNE 8.1 mph - N/A   Unknown
2:54 AM 17.1 °F 7.6 °F 15.1 °F 92% 30.34 in - NNE 6.9 mph - 0.02 in   Unknown
3:54 AM 17.1 °F 5.8 °F 15.1 °F 92% 30.32 in - NNE 9.2 mph - 0.02 in   Unknown
4:54 AM 17.1 °F 5.0 °F 14.0 °F 88% 30.31 in - North 10.4 mph - 0.01 in   Unknown
5:54 AM 17.1 °F 4.3 °F 15.1 °F 92% 30.30 in - NNE 11.5 mph 20.7 mph N/A   Unknown
6:54 AM 17.1 °F 2.5 °F 15.1 °F 92% 30.28 in - NNE 15.0 mph 21.9 mph 0.01 in   Unknown
7:54 AM 17.1 °F 5.0 °F 15.1 °F 92% 30.26 in - NNE 10.4 mph 21.9 mph 0.02 in   Unknown
8:54 AM 19.0 °F 5.6 °F 17.1 °F 92% 30.25 in - NE 13.8 mph - 0.02 in   Unknown
9:54 AM 19.0 °F 8.2 °F 18.0 °F 96% 30.23 in - NE 9.2 mph 17.3 mph 0.06 in   Unknown
10:54 AM 23.0 °F 8.7 °F 21.0 °F 92% 30.19 in - ENE 18.4 mph 32.2 mph 0.05 in   Unknown
11:54 AM 21.9 °F 7.8 °F 21.0 °F 96% 30.13 in - NE 17.3 mph 39.1 mph 0.05 in   Unknown
12:54 PM 23.0 °F 8.3 °F 21.0 °F 92% 30.09 in - NE 19.6 mph 33.4 mph 0.04 in   Unknown
1:54 PM 23.0 °F 10.1 °F 21.9 °F 96% 30.06 in - ENE 15.0 mph 33.4 mph 0.04 in   Unknown
2:54 PM 23.0 °F 8.3 °F 21.9 °F 96% 30.03 in - ENE 19.6 mph 32.2 mph 0.04 in   Unknown
3:54 PM 15.1 °F 0.5 °F 12.9 °F 91% 30.00 in - NNE 13.8 mph 21.9 mph 0.05 in   Unknown
4:54 PM 12.0 °F -2.7 °F 9.0 °F 88% 29.99 in - North 12.7 mph - 0.03 in   Unknown
5:54 PM 9.0 °F -9.5 °F 6.1 °F 88% 29.98 in - North 18.4 mph 25.3 mph 0.06 in   Unknown
6:54 PM 7.0 °F -12.1 °F 3.9 °F 87% 29.96 in - North 18.4 mph 24.2 mph 0.07 in   Unknown
7:54 PM 6.1 °F -13.3 °F 3.0 °F 87% 29.92 in - North 18.4 mph 24.2 mph 0.07 in   Unknown
8:54 PM 3.9 °F -15.0 °F 1.0 °F 88% 29.89 in - North 16.1 mph 27.6 mph 0.11 in   Unknown
9:54 PM 5.0 °F -16.7 °F 1.9 °F 87% 29.84 in - North 23.0 mph 36.8 mph 0.10 in   Unknown
10:54 PM 1.9 °F -19.2 °F -0.0 °F 91% 29.82 in - North 19.6 mph 31.1 mph 0.07 in   Unknown
11:54 PM 1.0 °F -20.9 °F -2.9 °F 83% 29.81 in - North 20.7 mph 33.4 mph 0.07 in   Unknown